User: anonymous   Login
Location: *
(33.8649°S, 62.1526°E)
Time: 20:21:15
(UTC+00:00)
Language:

CZ-3B R/B - Orbit

View from above orbital plane
View from above orbital plane
View from above satellite
View from above satellite

Ground track
Ground track

The orbit data is extracted from the following two-line orbital elements,

1 42764U 17035B   21126.42061003  .00475430 -17203-5  70146-3 0  9990
2 42764  25.6083 212.5441 2594732  26.0867 345.0020 10.46880356 98416
Epoch (UTC): 06 May 2021 10:05:40
Eccentricity: 0.2594732
inclination: 25.6083°
perigee height: 158 km
apogee height: 4739 km
right ascension of ascending node: 212.5441°
argument of perigee: 26.0867°
revolutions per day: 10.46880356
mean anomaly at epoch: 345.0020°
orbit number at epoch: 9841

The dashed part of the orbit path shows where the satellite is in the earth's shadow,  

DLR